Pagrindinis puslapis
METAR-TAF:

METAR-TAF

Oro uostai :

Rivas, Nikaragva

platuma: 11-25N, ilguma: 085-50W, Aukštis: 53 m

Dabartinis oras

Ataskaita buvo paskelbta 56 minutes, ne 18:00 UTC
Vėjas 4 kt iš Rytų/Pietryčių
Temperatūra 30°C
Drėgmė 70%
Slėgis 1011 hPa
Matomumas 10 km arba daugiau
Mažai debesys ne aukštis 1200 ft, Liūtiniai kamuoliniai debesys.
Išsisklaidę debesys ne aukštis 1300 ft

METAR: MNRS 221800Z 12004KT 9999 FEW012CB SCT013 30/24 Q1011 CB N NE E SE S

Laikas: 12:56 (18:56 UTC)


TAF: trūkstamas

Orai ataskaitas ir orų prognozės (METAR, TAF).

turimą stotys yra geltonos ir raudonos taškus žemėlapyje.

Perkelti pele per norėdami pamatyti stoties vardą.

Tada spustelėkite, norėdami matyti oro stebėjimo ir prognozės.

Norėdami pakeisti žemėlapį: spustelėkite ant žalios mygtukų su juodo kryžiaus žemyn,; žalią mygtuką su brūkšneliu, jei norite nutolinti; arba žalių rodyklių gretimoms žemėlapius.


METAR-TAF: